Regional Weather Roundup
Issued by NWS Sioux Falls, SD

Home | Current Version | Previous Version | Text Only | Print | Product List | Glossary On
Versions: 1 2 3 4 5 6 7 8 9 10 11 12 13 14 15 16 17 18 19 20 21 22 23 24 25 26 27 28 29 30 31 32 33 34 35 36 37 38 39 40 41 42 43 44 45 46 47 48 49 50
000
ASUS43 KFSD 291602
RWRFSD

WEATHER ROUNDUP FOR SE SOUTH DAKOTA/SW MINNESOTA/NW IOWA
NATIONAL WEATHER SERVICE SIOUX FALLS SD
1000 AM CST THU JAN 29 2015

NOTE: "FAIR" INDICATES FEW OR NO CLOUDS BELOW 12,000 FEET WITH NO
SIGNIFICANT WEATHER AND OR OBSTRUCTIONS TO VISIBILITY.


SDZ038>040-050-052>070-291700-
SOUTHEAST SOUTH DAKOTA

CITY           SKY/WX    TMP DP  RH WIND       PRES   REMARKS
CHAMBERLAIN    NOT AVBL
HURON          CLOUDY    32  24  72 NW21G26   30.42R WCI  20
MADISON        CLOUDY    28  28 100 N26       30.35R WCI  13
MITCHELL       CLOUDY    34  25  69 N21G31    30.42R WCI  22
SIOUX FALLS    CLOUDY    31  24  75 NW20      30.36R WCI  19
WINNER         PTSUNNY   37  23  56 NW23G31   30.45R
YANKTON        CLOUDY    34  27  75 NW14      30.41R WCI  24
$$

MNZ071-072-080-081-089-090-097-098-291700-
SOUTHWEST MINNESOTA

CITY           SKY/WX    TMP DP  RH WIND       PRES   REMARKS
FAIRMONT       CLOUDY    30  21  69 NW23G35   30.24R WCI  17
JACKSON        CLOUDY    30  27  86 NW25G33   30.27R WCI  16
LUVERNE        CLOUDY    32  27  80 N17       30.34R WCI  21
MARSHALL       CLOUDY    27  19  74 N22G30    30.35R WCI  12
MONTEVIDEO     CLOUDY    25  19  80 N22G31    30.36R WCI  10
PIPESTONE      CLOUDY    28  23  80 N13G23    30.32R WCI  18
REDWOOD FALLS  CLOUDY    27  20  75 NW17G32   30.30R WCI  14
TRACY          CLOUDY    28  23  82 NW25G33   30.33R WCI  13
WINDOM         CLOUDY    28  25  86 NW21G35   30.28R WCI  15
WORTHINGTON    CLOUDY   N/A N/A N/A NW24G31   30.30R
$$

IAZ001>003-012>014-020>022-031-032-NEZ013-014-SDZ071-291700-
NORTHWEST IOWA

CITY           SKY/WX    TMP DP  RH WIND       PRES   REMARKS
ESTHERVILLE    CLOUDY    29  24  82 NW29G38   30.27R WCI  14
SIOUX CITY     CLOUDY    34  26  72 NW22G29   30.37R WCI  22
SPENCER        CLOUDY    32  24  72 N32G41    30.29R WCI  17
$$

ABBREVIATIONS USED IN REMARKS
   TC - TEMPERATURE IN CELSIUS
  WCI - WIND CHILL INDEX
   HX - HEAT INDEX
  VSB - VISIBILITY



USA.gov is the U.S. government's official web portal to all federal, state and local government web resources and services.